N7WWK-1 Weather Reports


Display with metric or nautical units.
time (UTC)temp
F
wind
direction
speed
MPH
gust
MPH
rain 1hr
in
rain 24hr
in
rain mn
in
humidity
%
barometer
mb
20260509024218 71 0 0.0 0.0 0.00 0.53 0.53 99 1013.2
20260509023005 71 0 0.0 0.0 0.00 0.53 0.53 99 1013.3
20260509022004 71 0 0.0 0.0 0.00 0.53 0.53 99 1013.1
20260509021004 70 0 0.0 0.0 0.00 0.53 0.53 99 1012.9
20260509020005 71 0 0.0 0.0 0.00 0.53 0.53 99 1012.7
20260509015217 70 0 0.0 0.0 0.00 0.53 0.53 99 1012.6
20260509014218 71 0 0.0 0.0 0.00 0.53 0.53 99 1012.8
20260509013005 71 0 0.0 0.0 0.00 0.53 0.53 99 1012.8
20260509012215 71 60 0.0 1.0 0.00 0.53 0.53 99 1012.6
20260509011005 71 99 0.0 1.0 0.01 0.53 0.53 99 1012.5
20260509010006 71 84 0.0 2.0 0.02 0.53 0.53 99 1012.3
20260509005005 71 73 0.0 2.0 0.02 0.53 0.53 99 1012.3
20260509004005 71 0 0.0 0.0 0.02 0.53 0.53 99 1012.4
20260509003004 71 81 0.0 1.0 0.02 0.53 0.53 99 1012.1
20260509002005 71 104 0.0 2.0 0.02 0.53 0.53 99 1012.0
20260509001005 71 88 1.0 4.0 0.01 0.52 0.52 99 1011.7
20260509000005 71 70 0.0 2.0 0.00 0.51 0.51 99 1012.1
20260508235005 71 77 2.0 6.0 0.00 0.51 0.51 99 1011.7
20260508234005 71 98 1.0 3.0 0.00 0.51 0.51 99 1011.8
20260508233004 71 90 0.0 2.0 0.02 0.51 0.51 99 1011.5
20260508232216 71 90 1.0 4.0 0.02 0.51 0.51 99 1011.5
20260508231004 71 83 1.0 3.0 0.02 0.51 0.51 99 1011.3
20260508230005 71 80 2.0 7.0 0.02 0.51 0.51 99 1011.3
20260508225005 71 84 2.0 7.0 0.03 0.51 0.51 99 1011.1
20260508224004 71 81 1.0 5.0 0.04 0.51 0.51 99 1011.1
20260508223005 71 83 3.0 9.0 0.02 0.49 0.49 99 1011.2
20260508222005 72 86 2.0 8.0 0.03 0.49 0.49 99 1011.1
20260508221005 72 90 1.0 4.0 0.03 0.49 0.49 99 1011.1
20260508220005 71 97 2.0 6.0 0.26 0.49 0.49 99 1010.7
20260508215004 71 94 1.0 6.0 0.40 0.48 0.48 99 1010.9
20260508214004 72 32 1.0 3.0 0.42 0.47 0.47 98 1010.6
20260508213004 72 109 1.0 2.0 0.47 0.47 0.47 98 1011.2
20260508212005 71 100 1.0 4.0 0.46 0.46 0.46 97 1010.7
20260508211004 71 94 2.0 5.0 0.46 0.46 0.46 97 1010.1
20260508210005 73 9 3.0 9.0 0.23 0.23 0.23 94 1011.2
20260508205005 76 13 1.0 6.0 0.08 0.08 0.08 93 1011.0
20260508204005 78 84 2.0 11.0 0.05 0.05 0.05 89 1010.0
20260508203005 81 85 3.0 10.0 0.00 0.00 0.00 77 1009.8
20260508202218 82 85 4.0 13.0 0.00 0.00 0.00 76 1010.0
20260508201004 82 86 3.0 9.0 0.00 0.00 0.00 76 1010.1
20260508200005 84 89 3.0 11.0 0.00 0.00 0.00 72 1010.3
20260508195005 85 82 3.0 8.0 0.00 0.00 0.00 71 1010.2
20260508194004 84 79 4.0 14.0 0.00 0.00 0.00 71 1010.5
20260508193005 87 90 3.0 11.0 0.00 0.00 0.00 69 1010.8
20260508192214 87 82 3.0 11.0 0.00 0.00 0.00 70 1010.8
20260508191215 87 98 1.0 8.0 0.00 0.00 0.00 69 1011.0
20260508190216 87 92 1.0 6.0 0.00 0.00 0.00 71 1011.1
20260508185004 87 97 1.0 3.0 0.00 0.00 0.00 72 1011.3
20260508184004 85 94 3.0 10.0 0.00 0.00 0.00 72 1011.5
20260508183005 86 83 2.0 8.0 0.00 0.00 0.00 70 1011.7
20260508182214 85 106 1.0 4.0 0.00 0.00 0.00 71 1011.7
20260508181005 84 87 3.0 6.0 0.00 0.00 0.00 74 1011.9
20260508180005 84 84 2.0 10.0 0.00 0.00 0.00 75 1012.2
20260508175004 86 96 2.0 9.0 0.00 0.00 0.00 73 1012.0
20260508174005 85 102 1.0 4.0 0.00 0.00 0.00 74 1012.2
20260508173005 87 65 1.0 3.0 0.00 0.00 0.00 72 1012.5
20260508172004 84 77 1.0 4.0 0.00 0.00 0.00 77 1012.6
20260508171005 82 88 1.0 4.0 0.00 0.00 0.00 80 1012.6
20260508170005 81 83 2.0 6.0 0.00 0.00 0.00 81 1012.6
20260508165004 82 82 2.0 7.0 0.00 0.00 0.00 80 1012.8
20260508164219 82 87 2.0 6.0 0.00 0.00 0.00 80 1012.8
20260508163004 83 87 2.0 7.0 0.00 0.00 0.00 79 1013.2
20260508162215 83 82 2.0 6.0 0.00 0.00 0.00 80 1013.0
20260508161005 84 87 2.0 4.0 0.00 0.00 0.00 78 1013.2
20260508160217 83 80 2.0 4.0 0.00 0.00 0.00 80 1013.2
20260508155218 84 87 1.0 7.0 0.00 0.00 0.00 76 1013.3
20260508154004 83 96 1.0 4.0 0.00 0.00 0.00 80 1013.6
20260508153004 82 86 1.0 3.0 0.00 0.00 0.00 81 1013.4
20260508152004 84 80 1.0 4.0 0.00 0.00 0.00 78 1013.5
20260508151217 83 46 1.0 4.0 0.00 0.00 0.00 78 1013.5
20260508150005 81 26 1.0 3.0 0.00 0.00 0.00 85 1013.7
20260508145214 80 353 2.0 6.0 0.00 0.00 0.00 83 1013.7
20260508144215 81 2 1.0 6.0 0.00 0.00 0.00 82 1013.6
20260508143216 81 7 2.0 4.0 0.00 0.00 0.00 82 1013.6
20260508142005 81 305 1.0 2.0 0.00 0.00 0.00 83 1013.6
20260508141004 81 9 1.0 4.0 0.00 0.00 0.00 83 1013.5
20260508140005 82 316 2.0 4.0 0.00 0.00 0.00 81 1013.3
20260508135005 81 354 2.0 4.0 0.00 0.00 0.00 82 1013.4
20260508134005 82 349 1.0 4.0 0.00 0.00 0.00 81 1013.2
20260508133217 81 13 2.0 4.0 0.00 0.00 0.00 83 1013.4
20260508132005 80 329 1.0 4.0 0.00 0.00 0.00 86 1013.6
20260508131004 79 342 2.0 6.0 0.00 0.00 0.00 87 1013.3
20260508130005 80 354 1.0 4.0 0.00 0.00 0.00 87 1013.3
20260508125215 79 331 1.0 2.0 0.00 0.00 0.00 88 1013.2
20260508124004 79 339 1.0 4.0 0.00 0.00 0.00 89 1013.2
20260508123217 78 345 1.0 3.0 0.00 0.00 0.00 91 1013.2
20260508122004 76 120 1.0 3.0 0.00 0.00 0.00 93 1013.1
20260508121214 76 163 1.0 2.0 0.00 0.00 0.00 94 1013.2
20260508120215 75 205 1.0 2.0 0.00 0.00 0.00 95 1012.6
20260508115005 75 162 0.0 2.0 0.00 0.00 0.00 96 1012.7
20260508114217 74 257 0.0 2.0 0.00 0.00 0.00 97 1012.5
20260508113005 74 0 0.0 0.0 0.00 0.00 0.00 97 1012.4
20260508112005 74 0 0.0 0.0 0.00 0.00 0.00 97 1012.2
20260508111005 73 0 0.0 0.0 0.00 0.00 0.00 98 1012.6
20260508110005 73 0 0.0 0.0 0.00 0.00 0.00 98 1012.1
20260508105004 73 0 0.0 0.0 0.00 0.00 0.00 98 1012.1
20260508104005 73 0 0.0 0.0 0.00 0.00 0.00 98 1011.6
20260508103004 73 0 0.0 0.0 0.00 0.00 0.00 98 1012.0
20260508102004 73 215 0.0 1.0 0.00 0.00 0.00 98 1011.6
20260508101005 73 0 0.0 0.0 0.00 0.00 0.00 98 1011.4
20260508100216 73 245 0.0 1.0 0.00 0.00 0.00 97 1011.2
20260508095004 73 225 0.0 1.0 0.00 0.00 0.00 97 1011.2
20260508094004 73 0 0.0 0.0 0.00 0.00 0.00 97 1011.0
20260508093005 73 226 0.0 1.0 0.00 0.00 0.00 97 1011.1
20260508092004 73 0 0.0 0.0 0.00 0.00 0.00 97 1011.3
20260508091216 73 0 0.0 0.0 0.00 0.00 0.00 96 1011.2
20260508090217 73 0 0.0 0.0 0.00 0.00 0.00 96 1011.0
20260508085218 73 0 0.0 0.0 0.00 0.00 0.00 96 1011.0
20260508084005 73 0 0.0 0.0 0.00 0.00 0.00 95 1011.2
20260508083004 74 171 0.0 0.0 0.00 0.00 0.00 95 1011.1
20260508082005 74 171 0.0 1.0 0.00 0.00 0.00 95 1011.2
20260508081004 74 166 0.0 1.0 0.00 0.00 0.00 95 1011.1
20260508080218 74 217 0.0 2.0 0.00 0.00 0.00 94 1011.2
20260508075005 74 196 0.0 1.0 0.00 0.00 0.00 94 1011.2
20260508074005 74 199 0.0 1.0 0.00 0.00 0.00 94 1011.0
20260508073215 74 199 0.0 1.0 0.00 0.00 0.00 94 1011.4
20260508072005 74 156 0.0 2.0 0.00 0.00 0.00 93 1011.4
20260508071004 74 177 0.0 1.0 0.00 0.00 0.00 93 1011.5
20260508070005 74 177 0.0 2.0 0.00 0.00 0.00 93 1011.6
20260508065005 75 174 1.0 2.0 0.00 0.00 0.00 92 1011.8
20260508064005 75 207 1.0 2.0 0.00 0.00 0.00 92 1011.9
20260508063004 75 195 1.0 2.0 0.00 0.00 0.00 91 1011.9
20260508062005 75 211 0.0 2.0 0.00 0.00 0.00 91 1011.9
20260508061004 75 188 0.0 1.0 0.00 0.00 0.00 91 1012.0
20260508060219 75 196 0.0 2.0 0.00 0.00 0.00 91 1011.8
20260508055005 75 183 0.0 1.0 0.00 0.00 0.00 91 1012.0
20260508054004 75 126 0.0 1.0 0.00 0.00 0.00 90 1012.2
20260508053004 75 185 1.0 2.0 0.00 0.00 0.00 89 1012.0
20260508052005 76 177 1.0 3.0 0.00 0.00 0.00 89 1012.1
20260508051004 76 155 0.0 1.0 0.00 0.00 0.00 88 1012.2
20260508050005 76 192 1.0 2.0 0.00 0.00 0.00 87 1012.2
20260508045004 76 183 1.0 2.0 0.00 0.00 0.00 87 1012.2
20260508044216 76 216 1.0 2.0 0.00 0.00 0.00 86 1012.1
20260508043005 77 207 1.0 2.0 0.00 0.00 0.00 86 1011.8
20260508042004 77 268 1.0 4.0 0.00 0.00 0.00 85 1012.1
20260508041004 77 256 2.0 6.0 0.00 0.00 0.00 84 1012.1
20260508040021 78 226 1.0 3.0 0.00 0.00 0.00 82 1012.3
20260508035216 78 203 1.0 2.0 0.00 0.00 0.00 81 1012.0
20260508034004 78 220 1.0 2.0 0.00 0.00 0.00 80 1012.1
20260508033005 79 220 1.0 2.0 0.00 0.00 0.00 79 1012.0
20260508032004 79 200 1.0 3.0 0.00 0.00 0.00 77 1011.9
20260508031004 79 261 2.0 6.0 0.00 0.00 0.00 76 1011.9
20260508030005 80 253 1.0 3.0 0.00 0.00 0.00 75 1012.1
20260508025217 80 208 1.0 6.0 0.00 0.00 0.00 74 1011.9